Simultaneous Nadir Overpasses (SNOs) Predictions

Prediction of SNOs between METOP-B and NOAA-19 Satellite Orbit:

Table of predicted SNOs for the next 14.0 days since TLE Epoch: 12/28/2024
Index Date (METOP-B) Time (METOP-B) Lat,Lon (METOP-B) SZA (METOP-B ) Date (NOAA-19) Time (NOAA-19) Lat,Lon (NOAA-19) SZA (NOAA-19 ) Distance(km) Time Diff (sec)
1 01/09/2025 03:29:39 80.26,-155.11 109.33 01/09/2025 03:28:30 80.26,-155.13 109.28 0.56 69
2 01/09/2025 04:20:19 -80.23, 12.49 70.65 01/09/2025 04:19:29 -80.24, 12.35 70.70 2.82 50
3 01/09/2025 05:10:59 80.20,-179.84 109.40 01/09/2025 05:10:25 80.21,-179.98 109.36 3.03 34
4 01/09/2025 06:01:39 -80.18, -12.25 70.58 01/09/2025 06:01:23 -80.17, -12.18 70.58 1.33 16
5 01/09/2025 06:52:20 80.17, 155.11 109.43 01/09/2025 06:52:20 80.17, 155.16 109.43 1.13 0
6 01/09/2025 07:43:00 -80.15, -37.30 70.55 01/09/2025 07:43:19 -80.15, -37.36 70.55 1.13 19
7 01/09/2025 08:33:40 80.11, 130.37 109.50 01/09/2025 08:34:15 80.12, 130.30 109.51 1.36 35
8 01/09/2025 09:24:19 -80.06, -61.75 70.44 01/09/2025 09:25:12 -80.05, -61.60 70.38 3.01 53



Historial Predications of SNOs between METOP-B and NOAA-19
